GW5071 Weather Reports


time (UTC)temp
F
wind
direction
speed
knots
gust
knots
rain 1hr
in
rain 24hr
in
rain mn
in
humidity
%
barometer
mb
20260503050749 52 8 5.2 10.4 0.00 0.00 0.00 58 1012.2
20260503050245 52 7 3.5 8.7 0.00 0.00 0.00 58 1012.6
20260503045743 52 128 3.5 9.6 0.00 0.00 0.00 59 1012.4
20260503045240 52 4 7.0 13.9 0.00 0.00 0.00 58 1012.3
20260503044736 52 12 6.1 9.6 0.00 0.00 0.00 61 1012.5
20260503044233 52 249 4.3 6.1 0.00 0.00 0.00 62 1012.4
20260503043731 52 70 1.7 7.8 0.00 0.00 0.00 59 1012.5
20260503043227 52 351 0.9 5.2 0.00 0.00 0.00 62 1012.4
20260503042723 52 265 2.6 6.1 0.00 0.00 0.00 61 1012.3
20260503042220 52 282 2.6 6.1 0.00 0.00 0.00 59 1012.6
20260503041716 52 84 2.6 6.1 0.00 0.00 0.00 60 1012.5
20260503041214 52 28 5.2 7.0 0.00 0.00 0.00 62 1012.5
20260503040711 52 19 4.3 7.0 0.00 0.00 0.00 62 1012.8
20260503040208 52 1 3.5 7.8 0.00 0.00 0.00 64 1013.0
20260503035705 52 0 2.6 8.7 0.00 0.00 0.00 68 1012.5
20260503035202 51 15 4.3 8.7 0.00 0.00 0.00 74 1012.6
20260503034700 52 226 2.6 6.1 0.00 0.00 0.00 71 1012.4
20260503034156 52 302 2.6 7.0 0.00 0.00 0.00 72 1012.6
20260503033654 52 29 2.6 6.1 0.00 0.00 0.00 73 1012.6
20260503033152 52 29 6.1 7.8 0.00 0.00 0.00 76 1012.6
20260503032649 51 88 3.5 6.1 0.00 0.00 0.00 82 1012.4
20260503032148 52 105 1.7 4.3 0.00 0.00 0.00 87 1012.5
20260503031645 51 29 5.2 10.4 0.00 0.00 0.00 88 1012.4
20260503031143 51 353 3.5 9.6 0.00 0.00 0.00 90 1012.3
20260503030638 51 321 4.3 7.0 0.00 0.00 0.00 91 1012.6
20260503030135 51 308 6.1 6.1 0.00 0.00 0.00 91 1012.6
20260503025632 50 296 4.3 5.2 0.00 0.00 0.00 91 1012.5
20260503025130 50 287 0.9 3.5 0.00 0.00 0.00 91 1012.3
20260503024626 50 233 1.7 2.6 0.00 0.00 0.00 91 1012.3
20260503024123 50 236 1.7 1.7 0.00 0.00 0.00 91 1012.5
20260503023620 50 44 0.0 2.6 0.00 0.00 0.00 91 1012.6
20260503023118 50 147 0.0 0.9 0.00 0.00 0.00 91 1012.5
20260503022613 50 213 1.7 2.6 0.00 0.00 0.00 91 1012.8
20260503022108 50 218 1.7 3.5 0.00 0.00 0.00 91 1013.0
20260503021605 50 220 3.5 4.3 0.00 0.00 0.00 91 1012.9
20260503021102 50 235 3.5 4.3 0.00 0.00 0.00 91 1012.9
20260503020559 50 209 2.6 4.3 0.00 0.00 0.00 92 1013.1
20260503020056 50 215 4.3 5.2 0.00 0.00 0.00 92 1013.0
20260503015552 50 220 2.6 3.5 0.00 0.00 0.00 91 1012.9
20260503015050 50 218 2.6 4.3 0.00 0.00 0.00 91 1012.7
20260503014545 50 230 3.5 5.2 0.00 0.00 0.00 91 1012.6
20260503014044 50 218 4.3 5.2 0.00 0.00 0.00 91 1012.7
20260503013541 50 207 3.5 3.5 0.00 0.00 0.00 91 1012.9
20260503013038 50 152 0.9 1.7 0.00 0.00 0.00 91 1012.7
20260503012536 50 199 2.6 2.6 0.00 0.00 0.00 91 1012.8
20260503012032 50 197 2.6 3.5 0.00 0.00 0.00 90 1012.5
20260503011529 50 182 3.5 3.5 0.00 0.00 0.00 90 1012.8
20260503011026 50 180 2.6 3.5 0.00 0.00 0.00 90 1012.6
20260503010522 50 167 1.7 2.6 0.00 0.00 0.00 90 1012.6
20260503010020 50 163 1.7 2.6 0.00 0.00 0.00 90 1012.6
20260503005517 50 148 1.7 2.6 0.00 0.00 0.00 89 1012.6
20260503005014 50 150 1.7 3.5 0.00 0.00 0.00 89 1012.5
20260503004510 50 159 2.6 3.5 0.00 0.00 0.00 89 1012.3
20260503004008 50 152 1.7 2.6 0.00 0.00 0.00 89 1012.6
20260503003505 50 154 2.6 3.5 0.00 0.00 0.00 89 1012.4
20260503003002 50 167 2.6 4.3 0.00 0.00 0.00 89 1012.3
20260503002459 50 160 2.6 3.5 0.00 0.00 0.00 89 1012.3
20260503001955 50 167 1.7 4.3 0.00 0.00 0.00 89 1012.5
20260503001452 50 149 3.5 4.3 0.00 0.00 0.00 89 1012.4
20260503000949 50 147 2.6 5.2 0.00 0.00 0.00 89 1012.4
20260503000446 50 117 4.3 5.2 0.00 0.00 0.00 89 1012.4
20260502235944 51 164 2.6 5.2 0.00 0.00 0.00 89 1012.4
20260502235440 50 141 4.3 4.3 0.00 0.00 0.00 89 1012.4
20260502234938 51 127 2.6 5.2 0.00 0.00 0.00 89 1012.2
20260502234434 51 142 3.5 6.1 0.00 0.00 0.00 89 1012.5
20260502233932 51 138 3.5 7.0 0.00 0.00 0.00 89 1012.3
20260502233426 51 113 4.3 6.1 0.00 0.00 0.00 89 1012.3
20260502232924 51 125 6.1 9.6 0.00 0.00 0.00 89 1012.4
20260502232420 51 119 5.2 7.8 0.00 0.00 0.00 88 1012.2
20260502231917 51 127 5.2 7.8 0.00 0.00 0.00 88 1012.1
20260502231415 51 100 4.3 7.0 0.00 0.00 0.00 87 1012.5
20260502230913 51 154 2.6 7.0 0.00 0.00 0.00 87 1012.5
20260502230410 52 124 4.3 6.1 0.00 0.00 0.00 85 1012.3
20260502225908 52 118 4.3 6.1 0.00 0.00 0.00 85 1012.4
20260502225404 52 108 7.8 8.7 0.00 0.00 0.00 85 1012.2
20260502224901 53 137 3.5 5.2 0.00 0.00 0.00 83 1012.3
20260502224356 53 201 3.5 5.2 0.00 0.00 0.00 83 1012.0
20260502223854 53 192 3.5 5.2 0.00 0.00 0.00 83 1012.1
20260502223352 54 171 3.5 4.3 0.00 0.00 0.00 83 1012.2
20260502222850 53 182 3.5 5.2 0.00 0.00 0.00 81 1012.2
20260502222347 54 173 3.5 4.3 0.00 0.00 0.00 80 1012.2
20260502221843 54 170 2.6 3.5 0.00 0.00 0.00 79 1012.1
20260502221339 54 159 2.6 5.2 0.00 0.00 0.00 80 1012.1
20260502220837 53 177 3.5 4.3 0.00 0.00 0.00 81 1012.0
20260502220332 54 194 3.5 4.3 0.00 0.00 0.00 81 1012.2
20260502215829 54 163 0.9 4.3 0.00 0.00 0.00 79 1012.2
20260502215327 55 200 2.6 4.3 0.00 0.00 0.00 78 1012.2
20260502214823 55 176 1.7 4.3 0.00 0.00 0.00 76 1012.2
20260502214320 55 206 1.7 3.5 0.00 0.00 0.00 74 1012.1
20260502213817 55 182 2.6 3.5 0.00 0.00 0.00 76 1012.2
20260502213314 55 223 1.7 1.7 0.00 0.00 0.00 77 1012.0
20260502212813 55 238 1.7 2.6 0.00 0.00 0.00 77 1012.2
20260502212311 54 157 0.0 1.7 0.00 0.00 0.00 80 1012.0
20260502211808 54 52 0.9 1.7 0.00 0.00 0.00 82 1011.8
20260502211304 54 137 1.7 2.6 0.00 0.00 0.00 82 1011.9
20260502210801 54 149 0.0 4.3 0.00 0.00 0.00 82 1011.8
20260502210258 55 195 3.5 4.3 0.00 0.00 0.00 82 1011.9
20260502205755 55 210 1.7 4.3 0.00 0.00 0.00 82 1011.9
20260502205251 55 146 4.3 5.2 0.00 0.00 0.00 81 1012.0
20260502204749 54 155 4.3 5.2 0.00 0.00 0.00 82 1011.8
20260502204246 54 147 3.5 7.0 0.00 0.00 0.00 81 1011.8
20260502203743 55 198 2.6 8.7 0.00 0.00 0.00 80 1011.9
20260502203242 55 193 4.3 8.7 0.00 0.00 0.00 80 1012.0
20260502202735 55 167 6.1 7.8 0.00 0.00 0.00 81 1011.7
20260502202234 55 198 1.7 6.1 0.00 0.00 0.00 80 1011.9
20260502201731 55 188 5.2 7.0 0.00 0.00 0.00 80 1012.0
20260502201227 55 184 4.3 7.0 0.00 0.00 0.00 79 1012.2
20260502200723 55 188 6.1 7.0 0.00 0.00 0.00 76 1012.2
20260502200220 56 189 3.5 7.0 0.00 0.00 0.00 75 1012.2
20260502195718 57 171 5.2 7.0 0.00 0.00 0.00 73 1012.1
20260502195214 57 251 0.9 5.2 0.00 0.00 0.00 76 1012.4
20260502194711 56 209 2.6 5.2 0.00 0.00 0.00 79 1012.4
20260502194209 55 160 4.3 4.3 0.00 0.00 0.00 80 1012.7
20260502193704 55 196 2.6 5.2 0.00 0.00 0.00 80 1012.7
20260502193202 54 221 6.1 7.8 0.00 0.00 0.00 79 1012.9
20260502192656 54 209 7.8 7.8 0.00 0.00 0.00 77 1012.7
20260502192154 55 210 1.7 6.1 0.00 0.00 0.00 77 1012.9
20260502191651 54 225 7.0 8.7 0.00 0.00 0.00 77 1013.1
20260502191143 55 207 5.2 7.8 0.00 0.00 0.00 76 1013.1
20260502190640 56 224 4.3 7.0 0.00 0.00 0.00 75 1013.2
20260502190139 55 220 7.0 8.7 0.00 0.00 0.00 77 1013.2
20260502185638 55 208 4.3 8.7 0.00 0.00 0.00 77 1013.1
20260502185135 56 236 7.0 7.8 0.00 0.00 0.00 75 1013.3
20260502184631 56 218 4.3 7.0 0.00 0.00 0.00 74 1013.3
20260502184127 56 227 5.2 10.4 0.00 0.00 0.00 75 1013.3
20260502183623 56 253 2.6 6.1 0.00 0.00 0.00 76 1013.3
20260502183120 55 222 7.0 9.6 0.00 0.00 0.00 78 1013.3
20260502182614 55 201 4.3 7.0 0.00 0.00 0.00 80 1013.6
20260502182110 55 219 7.8 9.6 0.00 0.00 0.00 79 1013.3
20260502181609 55 209 3.5 7.8 0.00 0.00 0.00 79 1013.3
20260502181107 56 216 6.1 7.8 0.00 0.00 0.00 79 1013.4
20260502180604 55 196 4.3 5.2 0.00 0.00 0.00 80 1013.5
20260502170518 53 210 2.6 7.8 0.00 0.00 0.00 86 1013.9
20260502164002 53 198 5.2 7.8 0.00 0.00 0.00 84 1014.2
20260502163457 54 206 3.5 7.0 0.00 0.00 0.00 84 1014.2
20260502162955 53 222 5.2 7.0 0.00 0.00 0.00 84 1014.1
20260502162452 53 215 2.6 6.1 0.00 0.00 0.00 85 1013.9
20260502161949 53 214 4.3 5.2 0.00 0.00 0.00 86 1014.1
20260502161445 53 215 4.3 6.1 0.00 0.00 0.00 85 1014.0
20260502160944 54 201 5.2 6.1 0.00 0.00 0.00 84 1014.0
20260502160441 53 209 2.6 4.3 0.00 0.00 0.00 86 1014.1
20260502151913 51 233 3.5 5.2 0.00 0.00 0.00 90 1014.3
20260502151409 51 193 4.3 7.8 0.00 0.00 0.00 90 1014.5
20260502150907 52 221 2.6 4.3 0.00 0.00 0.00 89 1014.5
20260502150403 52 213 3.5 6.1 0.00 0.00 0.00 89 1014.3
20260502130249 51 229 7.0 7.8 0.00 0.00 0.00 92 1014.5
20260502123735 51 250 4.3 7.0 0.00 0.00 0.00 92 1014.7
20260502123232 51 228 4.3 6.1 0.00 0.00 0.00 92 1014.5
20260502122728 51 212 4.3 7.0 0.00 0.00 0.00 91 1014.5
20260502122224 51 229 4.3 6.1 0.00 0.00 0.00 91 1014.4
20260502121723 51 230 6.1 7.8 0.00 0.00 0.00 91 1014.2
20260502121220 51 225 5.2 7.8 0.00 0.00 0.00 91 1014.3
20260502120716 51 217 5.2 7.8 0.00 0.00 0.00 91 1014.4
20260502120213 51 220 5.2 7.0 0.00 0.00 0.00 91 1014.4
20260502115711 51 235 4.3 7.8 0.00 0.00 0.00 91 1014.4
20260502115208 51 227 4.3 7.0 0.00 0.00 0.00 90 1014.3
20260502114704 50 234 4.3 6.1 0.00 0.00 0.00 91 1014.3
20260502114201 50 224 3.5 4.3 0.00 0.00 0.00 91 1014.1
20260502113658 50 175 4.3 4.3 0.00 0.00 0.00 91 1013.8
20260502113156 50 215 3.5 7.0 0.00 0.00 0.00 91 1014.2
20260502112654 50 222 4.3 7.8 0.00 0.00 0.00 91 1013.9
20260502112151 51 212 4.3 7.8 0.00 0.00 0.00 91 1014.3
20260502111648 51 198 1.7 7.8 0.00 0.00 0.00 91 1014.1
20260502111146 51 222 6.1 6.1 0.00 0.00 0.00 91 1014.3
20260502110643 51 227 4.3 8.7 0.00 0.00 0.00 91 1014.4
20260502110140 50 241 5.2 9.6 0.00 0.00 0.00 91 1014.3
20260502105638 50 226 6.1 8.7 0.00 0.00 0.00 91 1014.2
20260502105135 50 250 6.1 11.3 0.00 0.00 0.00 91 1014.5
20260502104632 50 229 7.8 13.0 0.00 0.00 0.00 91 1014.4
20260502104129 50 237 5.2 9.6 0.00 0.00 0.00 91 1014.4
20260502103627 50 234 8.7 11.3 0.00 0.00 0.00 91 1014.1
20260502103125 50 231 6.1 10.4 0.00 0.00 0.00 90 1014.2
20260502102621 50 235 9.6 11.3 0.00 0.00 0.00 90 1014.0
20260502102112 50 225 4.3 9.6 0.00 0.00 0.00 90 1013.8
20260502101610 50 222 13.0 13.9 0.00 0.00 0.00 90 1013.9
20260502101108 50 225 7.8 9.6 0.00 0.00 0.00 90 1013.7
20260502100607 50 222 5.2 12.2 0.00 0.00 0.00 90 1014.0
20260502100105 50 220 3.5 10.4 0.00 0.00 0.00 90 1013.9
20260502091038 50 220 12.2 12.2 0.00 0.00 0.00 89 1013.9
20260502090535 50 225 9.6 12.2 0.00 0.00 0.00 89 1014.1
20260502071430 50 235 9.6 15.6 0.00 0.00 0.00 86 1014.2
20260502070928 50 224 13.9 15.6 0.00 0.00 0.00 86 1014.3
20260502070426 50 225 11.3 19.1 0.00 0.00 0.00 86 1014.2
20260502065924 50 223 10.4 14.8 0.00 0.00 0.00 86 1014.0
20260502065422 50 243 7.8 13.0 0.00 0.00 0.00 86 1014.2
20260502064920 50 230 11.3 18.2 0.00 0.00 0.00 86 1014.2
20260502064417 50 224 7.8 13.0 0.00 0.00 0.00 86 1014.4
20260502063914 50 236 13.0 13.9 0.00 0.00 0.00 86 1014.5
20260502063412 50 225 7.0 8.7 0.00 0.00 0.00 87 1014.4
20260502062910 50 236 7.8 8.7 0.00 0.00 0.00 87 1014.6
20260502062407 50 231 8.7 9.6 0.00 0.00 0.00 87 1014.6
20260502061906 50 232 7.8 13.0 0.00 0.00 0.00 87 1014.9
20260502061403 50 249 4.3 8.7 0.00 0.00 0.00 88 1014.8
20260502060859 50 225 5.2 10.4 0.00 0.00 0.00 88 1015.0
20260502060358 50 248 4.3 9.6 0.00 0.00 0.00 88 1014.8
20260502055856 50 234 8.7 12.2 0.00 0.00 0.00 87 1014.5
20260502055354 50 213 7.0 9.6 0.00 0.00 0.00 88 1014.5
20260502054854 50 205 6.1 10.4 0.00 0.00 0.00 87 1014.4
20260502054350 50 213 4.3 8.7 0.00 0.00 0.00 87 1014.3
20260502053848 50 202 7.0 11.3 0.00 0.00 0.00 87 1014.6
20260502053345 50 212 7.8 10.4 0.00 0.00 0.00 87 1014.4
20260502052843 50 195 4.3 13.0 0.00 0.00 0.00 87 1014.4
20260502052341 50 207 5.2 10.4 0.00 0.00 0.00 87 1014.3
20260502051838 50 220 5.2 9.6 0.00 0.00 0.00 87 1014.4
20260502051337 50 198 6.1 11.3 0.00 0.00 0.00 87 1014.5
20260502050833 50 213 4.3 9.6 0.00 0.00 0.00 86 1014.4